| time (UTC) | temp F | wind direction | speed MPH | gust MPH | rain 1hr in | rain 24hr in | rain mn in | humidity % | barometer mb |
| 20260507082603 | 56 | 162 | 5.0 | 9.0 | 0.00 | 0.00 | 0.00 | 25 | 1015.2 |
| 20260507081602 | 56 | 188 | 3.0 | 5.0 | 0.00 | 0.00 | 0.00 | 27 | 1015.3 |
| 20260507080602 | 55 | 175 | 4.0 | 7.0 | 0.00 | 0.00 | 0.00 | 30 | 1015.3 |
| 20260507075601 | 54 | 231 | 2.0 | 6.0 | 0.00 | 0.00 | 0.00 | 31 | 1015.3 |
| 20260507074601 | 54 | 118 | 3.0 | 6.0 | 0.00 | 0.00 | 0.00 | 30 | 1015.3 |
| 20260507073602 | 53 | 226 | 3.0 | 5.0 | 0.00 | 0.00 | 0.00 | 27 | 1015.3 |
| 20260507072601 | 53 | 158 | 0.0 | 5.0 | 0.00 | 0.00 | 0.00 | 31 | 1015.4 |
| 20260507071559 | 53 | 69 | 1.0 | 5.0 | 0.00 | 0.00 | 0.00 | 33 | 1015.4 |
| 20260507070601 | 52 | 164 | 3.0 | 4.0 | 0.00 | 0.00 | 0.00 | 34 | 1015.4 |
| 20260507065600 | 52 | 69 | 2.0 | 5.0 | 0.00 | 0.00 | 0.00 | 35 | 1015.4 |
| 20260507064600 | 52 | 183 | 2.0 | 6.0 | 0.00 | 0.00 | 0.00 | 36 | 1015.4 |
| 20260507063559 | 51 | 90 | 0.0 | 4.0 | 0.00 | 0.00 | 0.00 | 40 | 1015.4 |
| 20260507062600 | 50 | 87 | 2.0 | 5.0 | 0.00 | 0.00 | 0.00 | 40 | 1015.4 |
| 20260507061600 | 49 | 62 | 2.0 | 4.0 | 0.00 | 0.00 | 0.00 | 42 | 1015.4 |
| 20260507060559 | 48 | 110 | 2.0 | 5.0 | 0.00 | 0.00 | 0.00 | 42 | 1015.3 |
| 20260507055559 | 48 | 94 | 4.0 | 5.0 | 0.00 | 0.00 | 0.00 | 42 | 1015.2 |
| 20260507054559 | 47 | 90 | 3.0 | 5.0 | 0.00 | 0.00 | 0.00 | 43 | 1015.3 |
| 20260507053558 | 47 | 79 | 2.0 | 5.0 | 0.00 | 0.00 | 0.00 | 44 | 1015.3 |
| 20260507052559 | 45 | 149 | 2.0 | 5.0 | 0.00 | 0.00 | 0.00 | 46 | 1015.2 |
| 20260507051559 | 44 | 96 | 2.0 | 5.0 | 0.00 | 0.00 | 0.00 | 47 | 1015.3 |
| 20260507050558 | 44 | 114 | 3.0 | 4.0 | 0.00 | 0.00 | 0.00 | 48 | 1015.3 |
| 20260507045558 | 43 | 114 | 4.0 | 7.0 | 0.00 | 0.00 | 0.00 | 49 | 1015.3 |
| 20260507044558 | 42 | 104 | 4.0 | 5.0 | 0.00 | 0.00 | 0.00 | 51 | 1015.3 |
| 20260507043557 | 40 | 118 | 2.0 | 4.0 | 0.00 | 0.00 | 0.00 | 55 | 1015.3 |
| 20260507042557 | 38 | 96 | 2.0 | 4.0 | 0.00 | 0.00 | 0.00 | 60 | 1015.3 |
| 20260507041556 | 36 | 104 | 2.0 | 5.0 | 0.00 | 0.00 | 0.00 | 65 | 1015.3 |
| 20260507040557 | 34 | 104 | 3.0 | 5.0 | 0.00 | 0.00 | 0.00 | 67 | 1015.3 |
| 20260507035556 | 31 | 93 | 2.0 | 4.0 | 0.00 | 0.00 | 0.00 | 74 | 1015.2 |
| 20260507034556 | 29 | 69 | 1.0 | 4.0 | 0.00 | 0.00 | 0.00 | 78 | 1015.2 |
| 20260507033555 | 27 | 86 | 2.0 | 4.0 | 0.00 | 0.00 | 0.00 | 81 | 1015.2 |
| 20260507032555 | 26 | 235 | 0.0 | 2.0 | 0.00 | 0.00 | 0.00 | 81 | 1015.2 |
| 20260507031555 | 26 | 235 | 0.0 | 2.0 | 0.00 | 0.00 | 0.00 | 80 | 1015.0 |
| 20260507030555 | 26 | 235 | 0.0 | 0.0 | 0.00 | 0.00 | 0.00 | 81 | 1015.0 |
| 20260507025554 | 26 | 235 | 0.0 | 0.0 | 0.00 | 0.00 | 0.00 | 80 | 1015.0 |
| 20260507024554 | 25 | 235 | 0.0 | 0.0 | 0.00 | 0.00 | 0.00 | 80 | 1015.0 |
| 20260507023554 | 25 | 235 | 0.0 | 0.0 | 0.00 | 0.00 | 0.00 | 80 | 1015.1 |
| 20260507022554 | 25 | 235 | 0.0 | 1.0 | 0.00 | 0.00 | 0.00 | 81 | 1015.1 |
| 20260507021553 | 25 | 259 | 0.0 | 0.0 | 0.00 | 0.00 | 0.00 | 80 | 1015.0 |
| 20260507020553 | 25 | 259 | 0.0 | 0.0 | 0.00 | 0.00 | 0.00 | 81 | 1015.1 |
| 20260507015553 | 25 | 259 | 0.0 | 0.0 | 0.00 | 0.00 | 0.00 | 80 | 1015.0 |
| 20260507014553 | 25 | 259 | 0.0 | 1.0 | 0.00 | 0.00 | 0.00 | 80 | 1015.1 |
| 20260507013552 | 25 | 259 | 0.0 | 0.0 | 0.00 | 0.00 | 0.00 | 80 | 1014.9 |
| 20260507012605 | 25 | 259 | 0.0 | 0.0 | 0.00 | 0.00 | 0.00 | 79 | 1014.9 |
| 20260507011552 | 25 | 259 | 0.0 | 0.0 | 0.00 | 0.00 | 0.00 | 79 | 1014.8 |
| 20260507010551 | 25 | 259 | 0.0 | 0.0 | 0.00 | 0.00 | 0.00 | 79 | 1014.7 |
| 20260507005551 | 26 | 259 | 0.0 | 0.0 | 0.00 | 0.00 | 0.00 | 78 | 1014.7 |
| 20260507004551 | 26 | 259 | 0.0 | 1.0 | 0.00 | 0.00 | 0.00 | 77 | 1014.7 |
| 20260507003551 | 26 | 259 | 0.0 | 0.0 | 0.00 | 0.00 | 0.00 | 77 | 1014.6 |
| 20260507002550 | 27 | 259 | 0.0 | 1.0 | 0.00 | 0.00 | 0.00 | 77 | 1014.5 |
| 20260507001550 | 27 | 259 | 0.0 | 0.0 | 0.00 | 0.00 | 0.00 | 77 | 1014.4 |
| 20260507000551 | 27 | 259 | 0.0 | 0.0 | 0.00 | 0.00 | 0.00 | 76 | 1014.3 |
| 20260506235550 | 28 | 259 | 0.0 | 1.0 | 0.00 | 0.00 | 0.00 | 76 | 1014.2 |
| 20260506234549 | 28 | 259 | 0.0 | 1.0 | 0.00 | 0.00 | 0.00 | 76 | 1014.3 |
| 20260506233549 | 28 | 259 | 0.0 | 0.0 | 0.00 | 0.00 | 0.00 | 76 | 1014.1 |
| 20260506232549 | 28 | 259 | 0.0 | 0.0 | 0.00 | 0.00 | 0.00 | 76 | 1014.1 |
| 20260506231549 | 28 | 259 | 0.0 | 0.0 | 0.00 | 0.00 | 0.00 | 76 | 1014.2 |
| 20260506230548 | 28 | 259 | 0.0 | 0.0 | 0.00 | 0.00 | 0.00 | 75 | 1014.2 |
| 20260506225548 | 28 | 259 | 0.0 | 0.0 | 0.00 | 0.00 | 0.00 | 74 | 1014.3 |
| 20260506224548 | 29 | 259 | 0.0 | 0.0 | 0.00 | 0.00 | 0.00 | 74 | 1014.3 |
| 20260506223548 | 29 | 259 | 0.0 | 0.0 | 0.00 | 0.00 | 0.00 | 74 | 1014.3 |
| 20260506222546 | 29 | 259 | 0.0 | 0.0 | 0.00 | 0.00 | 0.00 | 74 | 1014.3 |
| 20260506221547 | 30 | 259 | 0.0 | 0.0 | 0.00 | 0.00 | 0.00 | 74 | 1014.3 |
| 20260506220547 | 30 | 259 | 0.0 | 0.0 | 0.00 | 0.00 | 0.00 | 73 | 1014.2 |
| 20260506215547 | 30 | 259 | 0.0 | 0.0 | 0.00 | 0.00 | 0.00 | 73 | 1014.2 |
| 20260506214546 | 30 | 259 | 0.0 | 0.0 | 0.00 | 0.00 | 0.00 | 73 | 1014.2 |
| 20260506213546 | 31 | 259 | 0.0 | 0.0 | 0.00 | 0.00 | 0.00 | 71 | 1014.1 |
| 20260506212547 | 31 | 259 | 0.0 | 0.0 | 0.00 | 0.00 | 0.00 | 70 | 1014.1 |
| 20260506211547 | 31 | 259 | 0.0 | 0.0 | 0.00 | 0.00 | 0.00 | 70 | 1014.1 |
| 20260506210546 | 32 | 259 | 0.0 | 0.0 | 0.00 | 0.00 | 0.00 | 69 | 1014.1 |
| 20260506205546 | 32 | 259 | 0.0 | 0.0 | 0.00 | 0.00 | 0.00 | 68 | 1013.9 |
| 20260506204546 | 33 | 259 | 0.0 | 0.0 | 0.00 | 0.00 | 0.00 | 67 | 1013.9 |
| 20260506203544 | 33 | 259 | 0.0 | 0.0 | 0.00 | 0.00 | 0.00 | 67 | 1013.9 |
| 20260506202544 | 34 | 259 | 0.0 | 0.0 | 0.00 | 0.00 | 0.00 | 67 | 1013.9 |
| 20260506201545 | 35 | 259 | 0.0 | 0.0 | 0.00 | 0.00 | 0.00 | 65 | 1014.0 |
| 20260506200544 | 35 | 259 | 0.0 | 0.0 | 0.00 | 0.00 | 0.00 | 64 | 1014.1 |
| 20260506195545 | 36 | 259 | 0.0 | 0.0 | 0.00 | 0.00 | 0.00 | 63 | 1014.1 |
| 20260506194543 | 37 | 259 | 0.0 | 0.0 | 0.00 | 0.00 | 0.00 | 61 | 1014.1 |
| 20260506193544 | 38 | 259 | 0.0 | 0.0 | 0.00 | 0.00 | 0.00 | 59 | 1014.0 |
| 20260506192543 | 39 | 259 | 0.0 | 0.0 | 0.00 | 0.00 | 0.00 | 57 | 1014.0 |
| 20260506191543 | 40 | 259 | 0.0 | 0.0 | 0.00 | 0.00 | 0.00 | 54 | 1013.9 |
| 20260506190543 | 41 | 259 | 0.0 | 1.0 | 0.00 | 0.00 | 0.00 | 51 | 1013.9 |
| 20260506185542 | 42 | 259 | 0.0 | 0.0 | 0.00 | 0.00 | 0.00 | 51 | 1013.8 |
| 20260506184542 | 42 | 259 | 0.0 | 1.0 | 0.00 | 0.00 | 0.00 | 48 | 1013.6 |
| 20260506183544 | 43 | 259 | 0.0 | 3.0 | 0.00 | 0.00 | 0.00 | 45 | 1013.5 |
| 20260506182540 | 44 | 259 | 0.0 | 3.0 | 0.00 | 0.00 | 0.00 | 46 | 1013.5 |
| 20260506181541 | 45 | 262 | 0.0 | 2.0 | 0.00 | 0.00 | 0.00 | 44 | 1013.4 |
| 20260506180542 | 46 | 262 | 1.0 | 2.0 | 0.00 | 0.00 | 0.00 | 43 | 1013.4 |
| 20260506175541 | 47 | 262 | 1.0 | 4.0 | 0.00 | 0.00 | 0.00 | 38 | 1013.3 |
| 20260506174541 | 49 | 209 | 1.0 | 2.0 | 0.00 | 0.00 | 0.00 | 36 | 1013.2 |
| 20260506173541 | 50 | 209 | 1.0 | 3.0 | 0.00 | 0.00 | 0.00 | 29 | 1013.2 |
| 20260506172540 | 50 | 234 | 1.0 | 3.0 | 0.00 | 0.00 | 0.00 | 29 | 1013.2 |
| 20260506171540 | 50 | 230 | 1.0 | 6.0 | 0.00 | 0.00 | 0.00 | 28 | 1013.2 |
| 20260506170540 | 51 | 1 | 2.0 | 6.0 | 0.00 | 0.00 | 0.00 | 28 | 1013.2 |
| 20260506165540 | 51 | 269 | 1.0 | 5.0 | 0.00 | 0.00 | 0.00 | 27 | 1013.3 |
| 20260506164539 | 52 | 282 | 2.0 | 4.0 | 0.00 | 0.00 | 0.00 | 27 | 1013.2 |
| 20260506163540 | 52 | 261 | 3.0 | 5.0 | 0.00 | 0.00 | 0.00 | 29 | 1013.1 |
| 20260506162538 | 53 | 65 | 1.0 | 3.0 | 0.00 | 0.00 | 0.00 | 25 | 1013.1 |
| 20260506161538 | 54 | 248 | 4.0 | 6.0 | 0.00 | 0.00 | 0.00 | 26 | 1013.0 |
| 20260506160538 | 54 | 278 | 2.0 | 5.0 | 0.00 | 0.00 | 0.00 | 27 | 1013.0 |
| 20260506155538 | 54 | 228 | 1.0 | 7.0 | 0.00 | 0.00 | 0.00 | 26 | 1013.1 |
| 20260506154538 | 54 | 72 | 2.0 | 6.0 | 0.00 | 0.00 | 0.00 | 27 | 1013.0 |
| 20260506153538 | 54 | 92 | 3.0 | 9.0 | 0.00 | 0.00 | 0.00 | 25 | 1013.0 |
| 20260506152537 | 55 | 62 | 2.0 | 7.0 | 0.00 | 0.00 | 0.00 | 26 | 1013.0 |
| 20260506151537 | 55 | 241 | 2.0 | 9.0 | 0.00 | 0.00 | 0.00 | 26 | 1013.0 |
| 20260506150538 | 55 | 283 | 3.0 | 11.0 | 0.00 | 0.00 | 0.00 | 25 | 1012.9 |
| 20260506145535 | 55 | 217 | 1.0 | 6.0 | 0.00 | 0.00 | 0.00 | 26 | 1013.0 |
| 20260506144537 | 56 | 257 | 2.0 | 7.0 | 0.00 | 0.00 | 0.00 | 26 | 1013.1 |
| 20260506143537 | 55 | 285 | 6.0 | 10.0 | 0.00 | 0.00 | 0.00 | 27 | 1013.1 |
| 20260506142536 | 56 | 100 | 3.0 | 9.0 | 0.00 | 0.00 | 0.00 | 25 | 1013.1 |
| 20260506141536 | 55 | 0 | 3.0 | 5.0 | 0.00 | 0.00 | 0.00 | 26 | 1013.0 |
| 20260506140535 | 55 | 221 | 4.0 | 10.0 | 0.00 | 0.00 | 0.00 | 26 | 1013.0 |
| 20260506135535 | 55 | 283 | 6.0 | 11.0 | 0.00 | 0.00 | 0.00 | 26 | 1012.9 |
| 20260506134535 | 56 | 272 | 6.0 | 9.0 | 0.00 | 0.00 | 0.00 | 26 | 1013.0 |
| 20260506133536 | 56 | 230 | 4.0 | 9.0 | 0.00 | 0.00 | 0.00 | 26 | 1013.1 |
| 20260506132534 | 56 | 72 | 2.0 | 10.0 | 0.00 | 0.00 | 0.00 | 24 | 1013.1 |
| 20260506131534 | 56 | 212 | 3.0 | 13.0 | 0.00 | 0.00 | 0.00 | 24 | 1013.0 |
| 20260506130534 | 56 | 186 | 5.0 | 10.0 | 0.00 | 0.00 | 0.00 | 25 | 1013.0 |
| 20260506125535 | 56 | 237 | 5.0 | 12.0 | 0.00 | 0.00 | 0.00 | 25 | 1012.9 |
| 20260506124533 | 56 | 214 | 5.0 | 11.0 | 0.00 | 0.00 | 0.00 | 25 | 1013.0 |
| 20260506123533 | 56 | 219 | 5.0 | 11.0 | 0.00 | 0.00 | 0.00 | 26 | 1013.0 |
| 20260506122532 | 56 | 275 | 7.0 | 11.0 | 0.00 | 0.00 | 0.00 | 32 | 1013.0 |
| 20260506121533 | 54 | 219 | 3.0 | 9.0 | 0.00 | 0.00 | 0.00 | 31 | 1012.9 |
| 20260506120533 | 54 | 82 | 4.0 | 12.0 | 0.00 | 0.00 | 0.00 | 28 | 1012.9 |
| 20260506115533 | 54 | 282 | 5.0 | 9.0 | 0.00 | 0.00 | 0.00 | 31 | 1013.0 |
| 20260506114533 | 53 | 69 | 4.0 | 7.0 | 0.00 | 0.00 | 0.00 | 31 | 1013.0 |
| 20260506113533 | 54 | 216 | 2.0 | 10.0 | 0.00 | 0.00 | 0.00 | 27 | 1013.0 |
| 20260506112531 | 54 | 86 | 5.0 | 11.0 | 0.00 | 0.00 | 0.00 | 30 | 1013.0 |
| 20260506111531 | 54 | 231 | 4.0 | 9.0 | 0.00 | 0.00 | 0.00 | 30 | 1013.0 |
| 20260506110531 | 55 | 275 | 3.0 | 11.0 | 0.00 | 0.00 | 0.00 | 32 | 1012.9 |
| 20260506105531 | 54 | 255 | 6.0 | 12.0 | 0.00 | 0.00 | 0.00 | 32 | 1013.0 |
| 20260506104530 | 53 | 204 | 7.0 | 13.0 | 0.00 | 0.00 | 0.00 | 33 | 1012.9 |
| 20260506103529 | 51 | 216 | 5.0 | 10.0 | 0.00 | 0.00 | 0.00 | 37 | 1012.9 |
| 20260506102531 | 52 | 206 | 2.0 | 10.0 | 0.00 | 0.00 | 0.00 | 36 | 1012.9 |
| 20260506101530 | 52 | 244 | 6.0 | 12.0 | 0.00 | 0.00 | 0.00 | 36 | 1012.8 |
| 20260506095530 | 53 | 59 | 4.0 | 15.0 | 0.00 | 0.00 | 0.00 | 36 | 1012.9 |
| 20260506094529 | 53 | 244 | 5.0 | 9.0 | 0.00 | 0.00 | 0.00 | 35 | 1012.7 |
| 20260506093530 | 51 | 235 | 2.0 | 12.0 | 0.00 | 0.00 | 0.00 | 39 | 1012.7 |
| 20260506092527 | 52 | 219 | 4.0 | 7.0 | 0.00 | 0.00 | 0.00 | 39 | 1012.7 |
| 20260506091529 | 52 | 248 | 4.0 | 10.0 | 0.00 | 0.00 | 0.00 | 38 | 1012.7 |
| 20260506090528 | 51 | 195 | 5.0 | 12.0 | 0.00 | 0.00 | 0.00 | 40 | 1012.6 |
| 20260506085528 | 50 | 233 | 4.0 | 7.0 | 0.00 | 0.00 | 0.00 | 40 | 1012.6 |
| 20260506084528 | 50 | 221 | 4.0 | 7.0 | 0.00 | 0.00 | 0.00 | 41 | 1012.6 |